[[{"header":{"parameterUnit":"m.s-1","parameterCategory":1,"la1":30.2991,"la2":30.254,"lo1":-89.0895,"lo2":-89.0444,"dy":0.0017,"dx":0.0017,"nx":28,"ny":28,"refTime":"2023-07-18T03:00:00:Z","depth":0,"parameterNumber":2,"parameterNumberName":"U-component_of_WINDS"},"data":[0,0,0,0,0,0,0,0,0,0,0,0,0,0,0,0,0,0,0,0,0,0,0,0,0,0,0,0,0,0,0,0,0,0,0,0,0,0,0,0,0,0,0,0,0,0,0,0,0,0,0,0,0,0,0,0,0,0,3.0656,3.0657,0,3.0745,3.0746,3.0747,3.0701,3.0699,3.0696,3.0694,3.0786,3.079,3.0795,0,0,0,0,0,0,0,0,0,0,0,0,0,3.0444,3.0448,3.0656,3.0657,3.0658,3.0745,3.0746,3.0748,3.0701,3.0698,3.0696,3.0693,3.0784,3.079,3.0795,0,0,0,0,0,0,0,0,0,0,0,0,0,3.0535,3.0449,3.0656,3.0645,3.0645,3.0745,3.0746,3.0748,3.0702,3.0698,3.0695,3.0691,3.0782,3.0789,3.0796,3.0911,0,0,3.0818,3.0821,0,0,0,0,0,0,0,0,3.053,3.0543,3.0646,3.0646,3.0646,3.0708,3.0705,3.0803,3.0703,3.0681,3.0694,3.069,3.0763,3.0771,3.0796,3.0915,3.0919,3.0818,3.0822,3.0825,3.0827,0,0,0,0,0,0,0,3.0523,3.0538,3.0691,3.0647,3.0648,3.0636,3.0645,3.0723,3.0741,3.0682,3.0679,3.069,3.0762,3.0789,3.0798,3.092,3.0818,3.0824,3.0828,3.0831,3.1136,3.114,0,0,0,0,0,0,3.0518,3.0534,3.0688,3.0694,3.0578,3.0643,3.0653,3.0692,3.074,3.0743,3.0693,3.0688,3.0779,3.079,3.0801,3.0936,3.0825,3.0832,3.0836,3.1132,3.1137,3.1141,0,0,0,0,0,0,3.0513,3.0532,3.0685,3.0613,3.0631,3.065,3.0695,3.0696,3.0722,3.0748,3.0751,3.0718,3.0777,3.0791,3.0883,3.0939,3.0835,3.0841,3.1128,3.1134,3.1139,3.121,0,0,0,0,0,0,3.0507,3.0531,3.0575,3.0614,3.0635,3.0766,3.0698,3.07,3.0735,3.0728,3.0772,3.0775,3.0775,3.0873,3.089,3.0947,3.0847,3.1123,3.113,3.1137,3.1203,3.1217,3.123,0,0,0,0,0,3.05,3.0592,3.0577,3.0596,3.0691,3.077,3.0782,3.0779,3.0739,3.0783,3.08,3.0774,3.0931,3.0883,3.0902,3.0961,3.1119,3.1128,3.1137,3.1196,3.1214,3.123,0,0,0,0,0,0,3.0559,3.0597,3.0581,3.0688,3.0726,3.0762,3.0817,3.0799,3.0849,3.0841,3.0836,3.0846,3.0941,3.0961,3.0907,3.1074,3.1018,3.1031,3.1057,3.1075,3.1088,3.1081,3.0853,0,0,0,0,0,3.0584,3.0645,3.0675,3.0766,3.0786,3.0799,3.0833,3.0828,3.0866,3.0882,3.0905,3.0944,3.1001,3.1039,3.1094,3.1205,3.1213,3.1256,3.1269,3.128,3.1291,3.135,3.1368,3.117,3.117,3.117,0,0,3.0637,3.0665,3.0704,3.0779,3.0807,3.087,3.0812,3.0881,3.0927,3.0893,3.0981,3.0999,3.1042,3.1143,3.1189,3.1162,3.1348,3.1292,3.13,3.1305,3.136,3.1379,3.1396,3.1176,3.1175,3.1174,0,0,3.0765,3.0794,3.0872,3.0902,3.0945,3.0953,3.0972,3.101,3.1021,3.1109,3.1084,3.1138,3.1238,3.1269,3.1298,3.1436,3.1414,3.1454,3.1526,3.1582,3.1598,3.1612,3.1659,3.1677,3.1465,3.1466,3.1466,0,3.0826,3.0919,3.0915,3.0985,3.1018,3.0989,3.1068,3.1097,3.1157,3.118,3.1149,3.1272,3.1299,3.1407,3.144,3.1465,3.1485,3.1449,3.1596,3.161,3.1623,3.1668,3.1686,3.147,3.147,3.1469,3.1469,0,3.099,3.1055,3.1113,3.117,3.121,3.1284,3.1291,3.1331,3.1323,3.1333,3.1423,3.1454,3.1513,3.1539,3.1531,3.1645,3.1626,3.1596,3.154,3.1646,3.1688,3.1706,3.1476,3.1475,3.1474,3.1472,0,0,3.1157,3.1211,3.1232,3.1257,3.1303,3.1352,3.1425,3.1483,3.1517,3.1559,3.1618,3.1703,3.1675,3.1707,3.1703,3.1753,3.1859,3.1717,3.1717,3.174,3.1983,3.2005,3.2025,3.1845,3.1848,3.1851,3.1979,0,3.1287,3.1414,3.1412,3.1529,3.1588,3.1561,3.1624,3.1658,3.167,3.1721,3.1734,3.1793,3.1752,3.1772,3.182,3.1836,3.1907,3.1826,3.1899,3.1901,3.1887,3.2047,3.207,3.219,3.1996,3.1999,3.2001,0,3.1456,3.1502,3.1625,3.166,3.1685,3.1741,3.1793,3.1843,3.1881,3.1886,3.1922,3.1909,3.1982,3.1925,3.2024,3.1969,3.1999,3.2011,3.2015,3.2021,3.1956,3.2055,3.2229,3.2246,3.2027,3.2025,3.2023,0,3.1563,3.1656,3.1741,3.1764,3.1808,3.1848,3.1868,3.1902,3.1937,3.1982,3.2004,3.2058,3.2087,3.2128,3.213,3.2089,3.223,3.2173,3.2234,3.2234,3.2264,3.2262,3.2443,3.2286,3.2286,3.2286,3.2285,0,3.1707,3.1783,3.179,3.1842,3.1926,3.1922,3.2005,3.2021,3.2052,3.2106,3.2087,3.2138,3.2138,3.2191,3.2193,3.2273,3.2287,3.2292,3.2291,3.2293,3.2292,3.2311,3.2302,3.2291,3.2289,3.2289,3.2288,0,3.1841,3.1849,3.1939,3.1973,3.1983,3.2043,3.2072,3.2121,3.213,3.2199,3.2215,3.223,3.229,3.2296,3.2367,3.2368,3.2465,3.2456,3.2452,3.245,3.251,3.2503,3.2708,3.2734,3.2562,3.2564,3.2565,0,3.1931,3.1989,3.2028,3.2063,3.2085,3.2142,3.2176,3.2175,3.2212,3.2258,3.2302,3.236,3.2406,3.2503,3.252,3.2573,3.2564,3.2632,3.2572,3.2571,3.2563,3.2559,3.2563,3.2644,3.2646,3.2647,3.2648,0,3.2091,3.2091,3.2142,3.2194,3.2235,3.2276,3.2314,3.2344,3.2347,3.2389,3.245,3.2486,3.2557,3.2614,3.2666,3.2686,3.2667,3.2667,3.2684,3.2685,3.2679,3.2681,3.2481,3.2662,3.2661,3.266,3.2659,3.2659,3.2204,3.2253,3.2288,3.2345,3.2373,3.2409,3.2456,3.2471,3.2522,3.2579,3.2575,3.2642,3.2677,3.2745,3.2769,3.282,3.2797,3.2822,3.2828,3.2834,3.2839,3.2672,3.283,3.283,3.2829,3.2829,3.2829,0,3.2361,3.2382,3.2434,3.2487,3.2531,3.251,3.2551,3.2589,3.2647,3.2682,3.2727,3.2796,3.2851,3.2872,3.2926,3.2963,3.2956,3.2977,3.2973,3.2978,3.2857,3.2836,3.2982,3.2982,3.2982,3.2982,3.2982,3.2982,3.2447,3.2528,3.2533,3.2627,3.2648,3.2712,3.2737,3.277,3.2797,3.2874,3.292,3.2933,3.2962,3.3017,3.3066,3.3071,3.3091,3.3115,3.3116,3.3002,3.2987,3.2972,3.2952,3.312,3.312,3.3232,3.3233,3.3234]},{"header":{"parameterUnit":"m.s-1","parameterCategory":1,"la1":30.2991,"la2":30.254,"lo1":-89.0895,"lo2":-89.0444,"dy":0.0017,"dx":0.0017,"nx":28,"ny":28,"refTime":"2023-07-18T03:00:00:Z","depth":0,"parameterNumber":3,"parameterNumberName":"V-component_of_WINDS"},"data":[0,0,0,0,0,0,0,0,0,0,0,0,0,0,0,0,0,0,0,0,0,0,0,0,0,0,0,0,0,0,0,0,0,0,0,0,0,0,0,0,0,0,0,0,0,0,0,0,0,0,0,0,0,0,0,0,0,0,0.6573,0.6574,0,0.661,0.661,0.6611,0.6603,0.6603,0.6602,0.6601,0.6641,0.6643,0.6645,0,0,0,0,0,0,0,0,0,0,0,0,0,0.6499,0.65,0.6573,0.6574,0.6574,0.661,0.661,0.6611,0.6604,0.6603,0.6602,0.6601,0.6641,0.6643,0.6645,0,0,0,0,0,0,0,0,0,0,0,0,0,0.6533,0.6501,0.6573,0.6575,0.6575,0.661,0.661,0.6611,0.6604,0.6603,0.6602,0.6601,0.664,0.6643,0.6645,0.6681,0,0,0.6653,0.6654,0,0,0,0,0,0,0,0,0.6531,0.6536,0.6574,0.6575,0.6575,0.6601,0.6599,0.6634,0.6604,0.6593,0.6601,0.66,0.6629,0.6632,0.6642,0.6683,0.6685,0.6653,0.6655,0.6656,0.6657,0,0,0,0,0,0,0,0.6529,0.6534,0.6588,0.6575,0.6575,0.6574,0.6578,0.6605,0.6616,0.6594,0.6593,0.6598,0.6629,0.6639,0.6642,0.6685,0.6653,0.6655,0.6657,0.6658,0.6757,0.6758,0,0,0,0,0,0,0.6525,0.6532,0.6587,0.6589,0.655,0.6576,0.658,0.6594,0.6616,0.6618,0.6599,0.6597,0.6635,0.6639,0.6644,0.6687,0.6656,0.6658,0.666,0.6755,0.6757,0.6758,0,0,0,0,0,0,0.6524,0.653,0.6585,0.656,0.6567,0.6579,0.6594,0.6595,0.6605,0.6619,0.6622,0.6607,0.6635,0.664,0.6671,0.6688,0.6659,0.6662,0.6754,0.6756,0.6757,0.6773,0,0,0,0,0,0,0.6522,0.653,0.6543,0.6561,0.6569,0.6612,0.6595,0.6596,0.6609,0.6608,0.6628,0.663,0.6634,0.6668,0.6674,0.6691,0.6664,0.6753,0.6755,0.6757,0.6771,0.6775,0.6778,0,0,0,0,0,0.6519,0.6547,0.6544,0.6551,0.6586,0.6613,0.6617,0.6621,0.661,0.6624,0.6633,0.6629,0.6685,0.6671,0.6678,0.6696,0.6752,0.6754,0.6757,0.6769,0.6774,0.6778,0,0,0,0,0,0,0.6533,0.6549,0.6546,0.6581,0.6595,0.6611,0.6629,0.6626,0.6645,0.6643,0.6647,0.6652,0.6683,0.6693,0.6677,0.6731,0.6717,0.6721,0.6724,0.6729,0.6732,0.673,0.6666,0,0,0,0,0,0.6539,0.6559,0.6573,0.6602,0.6609,0.6618,0.663,0.6631,0.6647,0.6653,0.6665,0.6681,0.6702,0.6716,0.6736,0.6772,0.6776,0.6788,0.6791,0.6794,0.6798,0.6817,0.6822,0.6766,0.6766,0.6766,0,0,0.6554,0.6566,0.6578,0.6605,0.6617,0.6638,0.6623,0.6646,0.6662,0.6657,0.6687,0.6696,0.6714,0.6747,0.6763,0.6756,0.6814,0.6797,0.6799,0.6802,0.682,0.6825,0.683,0.6768,0.6767,0.6767,0,0,0.6592,0.6602,0.6627,0.6638,0.6655,0.666,0.6666,0.6683,0.6688,0.6718,0.6714,0.6733,0.6769,0.6782,0.6793,0.6833,0.6831,0.684,0.6859,0.6878,0.6882,0.6886,0.6901,0.6906,0.6843,0.6843,0.6843,0,0.6608,0.6639,0.6641,0.6664,0.6675,0.667,0.6696,0.6707,0.673,0.6738,0.673,0.6774,0.6786,0.6822,0.6832,0.6841,0.6848,0.6838,0.6881,0.6885,0.6889,0.6903,0.6908,0.6844,0.6844,0.6844,0.6844,0,0.6658,0.668,0.6698,0.6719,0.6732,0.6757,0.6762,0.6776,0.6775,0.6781,0.6811,0.6825,0.6847,0.6856,0.6857,0.6892,0.6887,0.688,0.6866,0.6895,0.6909,0.6914,0.6846,0.6846,0.6845,0.6845,0,0,0.6707,0.6727,0.6734,0.6743,0.676,0.6777,0.6801,0.6821,0.6833,0.6849,0.6869,0.6898,0.6892,0.6904,0.6906,0.6922,0.6953,0.6913,0.6914,0.692,0.6993,0.6998,0.7004,0.695,0.6951,0.6952,0.6991,0,0.6746,0.6787,0.6788,0.6826,0.6846,0.684,0.6861,0.6874,0.688,0.6897,0.6904,0.6925,0.6914,0.6922,0.6937,0.6946,0.6968,0.6943,0.697,0.6971,0.6966,0.7011,0.7018,0.7054,0.6996,0.6997,0.6998,0,0.6798,0.6814,0.6853,0.6866,0.6875,0.6893,0.6912,0.6928,0.6943,0.6946,0.6959,0.6958,0.6982,0.6966,0.7,0.6983,0.6994,0.6999,0.7001,0.7004,0.6987,0.7016,0.7065,0.7071,0.7006,0.7005,0.7005,0,0.683,0.6861,0.6888,0.6896,0.6912,0.6925,0.6933,0.6946,0.6958,0.6974,0.6982,0.7001,0.7012,0.7027,0.7031,0.7019,0.7065,0.7049,0.7068,0.7068,0.7079,0.7079,0.7131,0.7085,0.7085,0.7085,0.7085,0,0.6874,0.6898,0.6902,0.6919,0.6946,0.6947,0.6974,0.698,0.6992,0.701,0.7007,0.7024,0.7028,0.7046,0.7049,0.7077,0.7081,0.7085,0.7086,0.7086,0.7085,0.7093,0.7091,0.7086,0.7086,0.7086,0.7086,0,0.6915,0.6918,0.6947,0.696,0.6963,0.6983,0.6994,0.701,0.7014,0.7037,0.7043,0.7051,0.7072,0.7077,0.7102,0.7104,0.7136,0.7135,0.7131,0.7131,0.715,0.7149,0.7211,0.7219,0.7167,0.7167,0.7168,0,0.6943,0.6961,0.6975,0.6986,0.6994,0.7013,0.7024,0.7026,0.7038,0.7055,0.7069,0.7089,0.7106,0.714,0.7148,0.7167,0.7166,0.7186,0.7169,0.7168,0.7166,0.7165,0.7167,0.719,0.719,0.7191,0.7191,0,0.6993,0.6993,0.701,0.7026,0.704,0.7054,0.7067,0.7077,0.708,0.7094,0.7115,0.7127,0.7152,0.7172,0.7191,0.72,0.7196,0.7196,0.7202,0.7202,0.72,0.7201,0.7141,0.7195,0.7195,0.7195,0.7194,0.7194,0.7028,0.7044,0.7055,0.7074,0.7083,0.7095,0.7111,0.7116,0.7133,0.7153,0.7153,0.7176,0.7189,0.7213,0.7223,0.7241,0.7234,0.7242,0.7245,0.7247,0.7248,0.7196,0.7244,0.7244,0.7244,0.7244,0.7244,0,0.7078,0.7084,0.7101,0.7119,0.7133,0.7127,0.7141,0.7153,0.7173,0.7185,0.72,0.7224,0.7243,0.7252,0.7271,0.7284,0.7282,0.7289,0.7288,0.729,0.7253,0.7246,0.7289,0.7289,0.7289,0.7289,0.7289,0.7289,0.7105,0.7131,0.7133,0.7163,0.717,0.7191,0.72,0.721,0.722,0.7246,0.7261,0.7266,0.7277,0.7297,0.7314,0.7316,0.7323,0.733,0.7332,0.7297,0.7293,0.7288,0.7282,0.7332,0.7332,0.7368,0.7368,0.7368]}]]